{"data":{"norad_id":62874,"epoch":"2026-05-25T03:25:05.609856Z","epoch_age_seconds":65827,"freshness":"FRESH","line1":"1 62874U 25022W   26145.14242604  .00013672  00000+0  47274-3 0  9994","line2":"2 62874  53.1568 134.6240 0001176  89.5588 270.5547 15.30209106 73608","mean_motion":15.30209106,"eccentricity":0.0001176,"inclination_deg":53.1568,"raan_deg":134.624,"arg_perigee_deg":89.5588,"mean_anomaly_deg":270.5547,"bstar":0.00047274,"rev_number":7360,"period_min":94.104785702406,"perigee_km":474.38192967355,"apogee_km":475.99383168549,"semimajor_km":6853.3248806795,"source":"CELESTRAK","updated_at":"2026-05-25T13:38:19.787640Z"}}